Location: Cybinka
(52.1954°N, 14.8001°E)
Time: 05:22:48
(UTC+02:00)

ISS - Visible Passes

Search period start: 28 May 2018 00:00
Search period end: 07 June 2018 00:00
Orbit: 402 x 407 km, 51.6° (Epoch: 28 May)

Date Brightness Start Highest point End Pass type
(mag) Time Alt. Az. Time Alt. Az. Time Alt. Az.
28 May -2.1 01:06:51 10° W 01:08:21 20° WSW 01:08:21 20° WSW visible
28 May -3.9 22:38:00 10° W 22:41:17 81° S 22:44:33 10° E visible
29 May -3.3 00:14:31 10° W 00:17:35 37° SSW 00:17:42 37° SSW visible
29 May -3.6 23:22:15 10° W 23:25:27 51° SSW 23:27:06 24° SE visible
30 May -1.3 00:59:23 10° WSW 00:59:43 11° WSW 00:59:43 11° WSW visible
30 May -3.8 22:30:00 10° W 22:33:15 66° SSW 22:36:31 10° ESE visible
31 May -2.4 00:06:44 10° W 00:09:08 23° SW 00:09:08 23° SW visible
31 May -3.0 23:14:18 10° W 23:17:17 33° SSW 23:18:35 24° SSE visible
01 Jun -3.4 22:21:58 10° W 22:25:08 46° SSW 22:28:02 12° SE visible
01 Jun -1.6 23:59:22 10° WSW 00:00:40 13° SW 00:00:40 13° SW visible
02 Jun -2.1 23:06:31 10° W 23:08:59 20° SW 23:10:09 17° S visible
03 Jun -2.6 22:13:59 10° W 22:16:53 29° SSW 22:19:40 11° SSE visible
04 Jun -1.4 22:59:26 10° WSW 23:00:31 11° SW 23:01:37 10° SSW visible
05 Jun -1.8 22:06:13 10° W 22:08:28 17° SW 22:10:44 10° S visible
